Probability
0 0 0 0 0 0 0 0 0 0 0 0 0 0 0 0 0 1 1 1 2 4 8 16 21 18 12 10 10 11 10 12 12 8 4 4 5 5 4 2 1 1 1 1 1 1 1 0 0
0 0 0 0 0 0 0 0 0 0 0 0 0 0 0 0 1 2 2 2 3 4 9 17 22 20 15 12 12 12 12 14 13 9 5 4 3 3 2 1 1 1 1 2 2 2 2 1 1
0 0 0 0 0 0 0 0 0 0 0 0 0 0 0 0 2 2 2 3 4 5 10 17 22 22 18 14 15 16 16 16 13 9 6 4 3 2 1 1 1 1 2 3 2 2 3 3 2
0 0 0 0 0 0 0 0 0 0 0 0 0 0 0 0 1 2 3 4 5 7 10 16 21 22 20 17 18 19 19 17 12 8 6 5 4 4 3 3 3 3 4 3 1 1 2 3 3
0 0 0 0 0 0 0 0 0 0 0 0 0 0 0 0 1 2 4 5 7 9 11 14 18 19 19 18 18 19 19 17 13 9 6 6 6 5 4 4 5 5 5 4 2 1 1 1 2
0 0 0 0 0 0 0 0 0 0 0 0 0 0 0 0 1 2 4 5 7 9 11 13 13 14 15 15 15 17 18 18 15 11 8 7 7 6 5 4 5 6 6 4 3 3 2 1 1
0 0 0 0 0 0 0 0 0 0 0 0 0 0 0 0 1 2 4 5 6 6 8 10 9 8 10 11 12 14 16 17 16 13 10 8 7 7 6 5 5 5 5 5 5 6 5 3 2
0 0 0 0 0 0 0 0 0 0 0 0 0 0 0 0 1 2 4 5 5 5 5 5 4 4 6 8 9 11 12 13 14 12 9 5 5 6 6 6 6 5 6 7 8 8 7 5 4
0 0 0 0 0 0 0 0 0 0 0 0 0 0 0 1 2 4 5 6 5 4 3 2 2 2 3 4 7 8 8 9 9 8 6 3 3 4 5 5 5 6 8 9 8 7 7 6 4
0 0 0 0 0 0 0 0 0 0 0 0 0 0 1 2 3 4 6 6 6 3 1 1 1 1 1 3 5 5 5 4 5 6 5 2 2 3 3 3 3 5 8 8 7 6 6 5 2
0 0 0 0 0 0 0 0 0 0 0 0 0 0 2 3 3 2 4 5 5 3 1 1 1 0 1 2 3 3 2 2 3 6 5 2 1 3 3 3 3 4 7 7 6 4 4 3 1
0 0 0 0 0 0 0 0 0 0 0 0 0 0 1 3 2 1 2 3 4 3 3 2 1 0 0 1 1 1 0 1 3 4 4 2 1 2 3 4 4 5 6 6 6 4 3 2 1
0 0 0 0 0 0 0 0 0 0 0 0 0 0 1 2 2 1 0 1 2 3 3 3 1 0 0 0 0 0 0 1 2 3 2 1 1 1 3 4 5 6 6 6 6 5 4 3 1
0 0 0 0 0 0 0 0 0 0 0 0 0 0 0 1 1 0 0 0 1 1 2 2 1 0 0 0 0 0 0 0 1 1 1 0 0 1 2 3 4 4 5 5 5 5 5 3 2
0 0 0 0 0 0 0 0 0 0 0 0 0 0 0 0 0 0 0 0 0 0 1 1 1 0 0 0 0 0 0 0 0 0 0 0 0 0 1 2 3 3 2 3 3 4 4 3 3
0 0 0 0 0 0 0 0 0 0 0 0 0 0 0 0 0 0 0 0 0 0 0 0 0 0 0 0 0 0 0 0 0 0 0 0 0 0 0 1 1 1 1 1 1 2 3 3 3
0 0 0 0 0 0 0 0 0 0 0 0 0 0 0 0 0 0 0 0 0 0 0 0 0 0 0 0 0 0 0 0 0 0 0 0 0 0 0 0 0 0 0 0 0 1 1 2 1
0 0 0 0 0 0 0 0 0 0 0 0 0 0 0 0 0 0 0 0 0 0 0 0 0 0 0 0 0 0 0 0 0 0 0 0 0 0 0 0 0 0 0 0 0 0 0 0 0
0 0 0 0 0 0 0 0 0 0 0 0 0 0 0 0 0 0 0 0 0 0 0 0 0 0 0 0 0 0 0 0 0 0 0 0 0 0 0 0 0 0 0 0 0 0 0 0 0
0 0 0 0 0 0 0 0 0 0 0 0 0 0 0 0 0 0 0 0 0 0 0 0 0 0 0 0 0 0 0 0 0 0 0 0 0 0 0 0 0 0 0 0 0 0 0 0 0
0 0 0 0 0 0 0 0 0 0 0 0 0 0 0 0 0 0 0 0 0 0 0 0 0 0 0 0 0 0 0 0 0 0 0 0 0 0 0 0 0 0 0 0 0 0 0 0 0
0 0 0 0 0 0 0 0 0 0 0 0 0 0 0 0 0 0 0 0 0 0 0 0 0 0 0 0 0 0 0 0 0 0 0 0 0 0 0 0 0 0 0 0 0 0 0 0 0
0 0 0 0 0 0 0 0 0 0 0 0 0 0 0 0 0 0 0 0 0 0 0 0 0 0 0 0 0 0 0 0 0 0 0 0 0 0 0 0 0 0 0 0 0 0 0 0 0
0 0 0 0 0 0 0 0 0 0 0 0 0 0 0 0 0 0 0 0 0 0 0 0 0 0 0 0 0 0 0 0 0 0 0 0 0 0 0 0 0 0 0 0 0 0 0 0 0
0 0 0 0 0 0 0 0 0 0 0 0 0 0 0 0 0 0 0 0 0 0 0 0 0 0 0 0 0 0 0 0 0 0 0 0 0 0 0 0 0 0 0 0 0 0 0 0 0
0 0 0 0 0 0 0 0 0 0 0 0 0 0 0 0 0 0 0 0 0 0 0 0 0 0 0 0 0 0 0 0 0 0 0 0 0 0 0 0 0 0 0 0 0 0 0 0 0
0 0 0 0 0 0 0 0 0 0 0 0 0 0 0 0 0 0 0 0 0 0 0 0 0 0 0 0 0 0 0 0 0 0 0 0 0 0 0 0 0 0 0 0 0 0 0 0 0
0 0 0 0 0 0 0 0 0 0 0 0 0 0 0 0 0 0 0 0 0 0 0 0 0 0 0 0 0 0 0 0 0 0 0 0 0 0 0 0 0 0 0 0 0 0 0 0 0
0 0 0 0 0 0 0 0 0 0 0 0 0 0 0 0 0 0 0 0 0 0 0 0 0 0 0 0 0 0 0 0 0 0 0 0 0 0 0 0 0 0 0 0 0 0 0 0 0
0 0 0 0 0 0 0 0 0 0 0 0 0 0 0 0 0 0 0 0 0 0 0 0 0 0 0 0 0 0 0 0 0 0 0 0 0 0 0 0 0 0 0 0 0 0 0 0 0
Wind_Speed
5 3 3 5 7 5 3 5 3 2 3 1 1 3 6 5 4 3 0 1 3 4 3 6 8 8 8 8 8 8 8 8 8 9 9 9 9 9 9 8 8 8 8 8 8 9 9 9 10
1 2 5 6 5 1 6 4 4 4 3 2 2 2 3 1 0 1 0 1 3 4 4 5 8 8 8 8 8 8 8 8 8 8 8 8 8 8 8 8 7 7 7 7 7 8 9 9 9
2 4 5 5 4 6 5 4 5 2 1 2 2 1 2 2 1 1 1 2 3 4 3 5 8 9 8 8 8 7 8 8 8 8 8 7 8 8 8 8 7 7 7 7 7 8 8 8 9
3 5 5 3 5 6 4 2 2 1 1 1 2 1 0 0 1 2 1 3 4 3 3 4 8 9 9 8 8 8 8 8 7 7 7 7 7 7 8 7 7 7 7 7 8 7 8 8 8
5 5 3 1 5 4 4 3 3 2 2 1 2 2 1 2 1 3 3 3 4 3 2 3 7 8 8 8 8 7 7 7 7 7 7 7 6 7 7 7 7 7 7 7 7 7 7 7 8
5 5 3 4 6 4 3 3 3 2 2 1 3 2 2 1 2 3 3 3 3 3 2 2 6 7 8 8 7 7 7 7 7 6 6 6 6 6 6 6 6 6 7 7 7 7 7 8 8
5 4 4 4 4 4 3 2 3 4 3 4 4 3 2 1 2 2 3 3 3 3 3 2 3 4 6 7 6 6 6 6 6 6 6 6 5 5 6 6 5 6 6 7 7 7 7 7 7
4 4 2 4 4 5 2 2 2 5 4 2 5 5 4 4 3 3 3 3 2 2 2 2 3 2 2 3 5 6 6 6 6 6 6 6 5 5 5 5 5 5 6 6 7 7 7 7 8
4 3 5 6 6 4 2 2 1 1 2 1 2 3 3 5 6 5 2 1 1 1 1 2 2 2 2 2 3 4 5 5 5 5 6 5 3 3 3 4 4 4 4 5 6 6 7 6 7
4 4 8 5 5 3 2 2 2 1 1 2 1 1 2 6 7 6 5 4 3 2 1 1 2 2 1 2 2 2 2 3 3 3 3 2 2 2 2 3 4 4 4 4 6 6 6 5 3
4 7 5 4 3 2 2 2 2 4 5 7 6 5 5 6 6 7 6 6 5 3 2 2 2 1 1 2 2 2 1 2 2 3 3 2 2 2 2 1 2 3 3 2 3 3 2 2 2
3 5 4 3 2 2 3 2 2 6 8 5 6 6 6 7 8 8 7 6 4 3 3 2 2 2 2 2 2 2 2 1 2 2 3 2 2 2 1 1 1 1 1 2 2 2 2 3 3
5 5 4 5 4 4 3 5 5 7 7 4 3 5 7 8 7 6 5 5 4 4 3 3 3 3 2 2 1 2 2 2 2 2 2 3 2 2 1 1 1 1 1 1 1 2 2 2 2
4 4 4 4 4 4 5 7 4 10 5 3 5 6 7 7 7 5 4 5 5 5 4 3 3 3 3 3 2 1 1 2 2 2 3 3 2 2 2 1 1 1 1 1 1 2 2 2 2
1 3 5 5 5 4 3 7 8 8 3 4 5 6 6 6 6 7 7 6 6 5 4 4 3 3 4 4 2 2 1 2 2 2 2 3 3 3 2 2 1 1 1 2 2 2 2 2 2
0 1 5 5 4 4 5 11 7 4 4 6 5 5 5 6 6 6 6 5 5 4 4 4 3 4 3 3 3 2 1 1 1 2 2 2 3 3 3 2 1 1 1 2 2 2 2 2 2
1 4 6 5 3 4 6 9 6 2 4 6 6 6 6 5 5 6 5 5 5 5 5 5 4 4 4 3 3 2 2 2 1 2 2 2 2 3 2 2 2 2 1 1 2 2 2 2 2
6 5 5 6 3 3 5 10 8 4 4 6 6 6 6 6 8 6 5 5 5 4 4 5 4 4 4 3 2 2 1 1 1 2 2 3 2 2 2 2 2 2 2 1 2 2 2 2 3
3 5 7 7 3 3 8 11 11 7 5 7 7 7 7 7 6 4 5 5 4 4 4 5 5 4 4 3 2 2 2 1 1 1 2 3 3 3 3 2 2 2 2 2 3 3 3 2 2
5 7 8 7 3 4 6 11 10 8 8 8 9 8 7 5 3 3 4 4 5 6 5 5 5 5 5 4 3 2 2 2 2 1 2 2 3 3 3 3 3 3 3 3 3 3 2 1 1
8 9 8 6 4 4 5 9 7 6 5 5 5 6 6 6 6 5 5 5 5 5 6 6 6 5 5 4 3 2 2 1 1 1 1 2 3 3 3 3 3 3 3 4 4 4 4 3 1
9 7 7 6 4 4 2 7 7 5 5 5 5 5 5 5 5 4 5 5 6 6 5 5 6 5 5 5 5 5 3 3 2 2 2 1 2 3 3 3 4 4 3 4 4 3 3 4 3
6 2 4 5 5 4 3 6 9 2 6 7 6 5 6 5 5 4 5 6 6 5 5 5 5 5 5 5 6 5 3 2 1 1 2 2 1 2 2 3 3 3 3 4 4 3 3 3 4
3 1 1 0 2 7 8 7 9 5 7 5 5 5 5 4 4 3 3 3 3 3 4 4 5 5 5 5 5 5 5 4 3 2 2 2 1 1 2 3 3 3 3 4 4 4 4 3 4
3 3 1 1 3 8 5 6 10 6 6 6 6 5 4 3 3 3 3 3 3 4 4 4 6 5 5 5 5 5 5 5 5 4 4 3 2 1 2 2 3 3 3 4 3 4 3 4 5
6 6 6 5 5 4 2 8 8 5 4 3 4 3 3 3 3 3 3 3 3 4 4 4 5 5 5 5 5 4 4 3 3 3 3 3 3 3 3 3 3 3 3 3 3 3 3 3 4
5 6 4 3 1 3 6 6 7 2 2 0 1 1 2 2 2 1 1 2 3 3 4 4 5 5 5 5 4 4 4 4 3 3 3 2 2 2 3 3 3 3 3 3 4 2 3 3 3
3 4 3 4 4 5 5 5 5 3 3 2 1 2 2 1 0 0 0 1 2 3 2 2 3 4 4 4 4 4 4 4 3 3 3 2 2 2 3 3 3 3 3 3 3 3 3 3 3
2 3 2 3 3 4 4 6 3 4 3 2 2 2 1 0 0 0 0 0 1 2 3 3 3 3 3 3 3 3 3 3 3 2 3 3 2 3 3 3 3 3 3 3 3 3 3 4 3
4 4 4 4 4 3 3 7 2 1 0 0 1 1 1 1 1 1 1 2 2 1 1 2 3 3 3 3 3 3 3 3 3 2 2 2 3 2 3 3 3 3 3 3 4 4 3 4 4
Wind_Direction
360 24 61 56 56 52 240 241 220 225 220 210 151 144 153 162 170 196 245 120 124 143 156 151 138 133 129 124 119 119 118 116 115 113 114 116 114 111 108 108 107 108 108 107 106 106 103 102 101
13 44 53 61 93 178 255 236 217 218 204 125 75 108 119 189 259 104 87 146 127 139 140 144 136 134 130 127 124 122 122 119 118 117 116 117 118 116 113 110 108 106 105 107 107 103 103 103 103
57 52 81 82 141 194 226 223 217 243 192 132 99 79 146 181 193 204 225 158 122 127 133 143 137 136 132 129 127 123 121 121 118 116 114 117 117 115 115 112 109 105 101 101 107 101 104 105 106
72 49 59 90 218 223 222 235 198 167 74 84 126 92 298 313 206 208 149 131 124 120 126 143 139 139 134 131 128 123 121 120 120 117 115 114 116 114 109 107 104 105 103 101 103 104 103 106 107
61 78 77 248 241 245 241 247 189 171 179 149 131 150 264 324 78 113 116 121 129 125 118 140 141 140 136 133 131 126 122 121 119 120 119 117 116 116 111 103 102 106 105 105 104 104 105 108 109
62 75 120 232 245 254 251 229 177 184 191 169 146 155 235 314 113 128 120 113 111 115 107 116 134 138 137 136 135 130 125 120 116 115 115 113 111 112 110 108 104 106 108 106 104 101 106 106 107
112 119 191 219 244 258 246 193 177 183 199 206 169 154 242 246 187 133 113 102 93 90 84 77 93 128 134 134 132 128 121 117 113 108 104 103 103 106 111 114 114 109 105 101 99 98 102 102 103
128 121 195 221 223 249 237 179 195 180 210 191 156 166 215 216 157 117 98 90 92 95 95 93 80 80 115 130 133 128 123 118 112 104 94 87 88 97 102 105 111 114 111 107 100 95 100 99 98
100 105 218 220 205 235 209 185 258 198 151 173 197 196 207 145 131 121 104 85 106 112 101 107 101 84 93 125 121 125 121 115 107 100 94 85 73 77 83 90 96 104 106 106 103 96 98 95 92
121 186 225 217 201 210 210 202 202 149 197 222 246 257 143 142 154 162 168 178 191 203 200 145 127 125 139 134 110 107 112 113 106 100 99 89 78 72 73 78 83 83 84 92 98 93 91 86 79
173 207 228 236 225 223 235 244 212 176 229 218 210 198 165 167 178 185 188 189 197 197 200 190 166 156 163 141 123 110 108 116 115 114 108 98 84 71 64 63 55 58 64 60 75 78 71 77 86
202 240 233 244 221 215 225 229 228 213 230 224 206 181 170 181 192 197 196 196 191 191 209 200 179 156 167 137 126 125 124 130 132 135 129 119 109 91 85 80 67 64 68 73 68 82 81 83 86
224 251 247 249 249 244 247 243 241 250 252 242 196 177 190 197 205 206 199 193 186 191 200 201 183 167 157 129 136 125 138 146 150 146 147 141 138 134 115 99 93 88 90 96 96 96 100 100 91
232 244 266 265 251 244 235 257 239 253 242 213 197 202 205 208 207 200 195 198 196 196 198 193 188 176 155 142 146 135 150 154 152 157 161 152 148 147 138 120 114 117 127 124 127 128 125 118 109
270 279 285 258 233 234 211 266 236 243 201 205 212 213 215 219 207 206 203 203 200 196 193 184 183 164 158 151 153 140 156 156 158 164 163 158 156 157 152 145 144 154 144 132 122 119 117 114 107
338 266 267 264 212 212 181 255 256 231 186 216 222 218 222 224 212 214 208 203 196 187 189 184 176 160 165 152 151 145 152 156 157 153 156 158 162 162 155 153 167 161 146 140 140 131 123 116 113
243 240 249 278 228 198 200 250 262 221 193 226 228 221 221 226 226 220 208 201 194 187 183 175 162 162 165 151 142 140 146 157 162 158 158 162 161 162 155 159 164 153 146 144 148 133 136 131 120
222 229 247 248 246 192 229 253 266 261 233 238 238 234 228 228 231 215 200 196 187 179 171 168 159 157 150 133 114 112 116 149 157 170 169 157 155 157 153 153 156 153 146 143 135 128 115 129 133
217 230 252 258 250 228 246 260 266 258 246 245 241 234 232 234 232 203 188 183 174 165 168 171 164 163 153 149 152 158 175 185 184 188 169 160 159 159 153 152 153 156 158 158 141 129 124 109 123
246 258 263 277 255 240 267 270 266 248 239 231 228 228 229 230 225 202 186 180 179 176 179 177 177 172 171 173 167 163 163 178 183 179 162 165 164 165 164 159 164 163 150 146 147 138 132 131 143
237 235 245 258 307 274 286 285 257 250 236 232 225 221 222 217 216 206 194 194 186 186 186 185 184 178 175 165 140 106 94 80 112 170 177 180 169 167 167 169 166 167 164 168 169 161 153 159 177
247 233 235 244 255 270 229 281 271 243 252 238 231 222 226 227 218 205 193 192 196 197 190 183 180 176 173 164 161 159 167 180 200 192 178 165 172 174 175 170 169 170 169 170 179 174 170 162 168
230 216 219 231 224 263 229 248 276 242 249 246 231 221 224 221 208 205 198 194 195 191 186 182 174 174 169 166 168 168 173 177 161 152 151 154 175 176 176 171 169 174 174 176 177 174 174 178 170
193 90 22 216 170 249 220 208 270 223 223 230 225 219 220 214 202 202 197 176 177 175 174 170 169 172 168 167 166 169 170 167 159 162 167 173 188 199 191 175 176 180 182 185 184 180 178 184 173
147 127 17 297 230 243 190 203 249 242 223 214 221 224 217 205 191 189 185 181 176 173 172 172 170 171 170 170 170 176 178 175 180 181 180 179 186 209 213 188 182 185 190 187 176 173 181 179 174
200 176 183 212 229 270 218 227 250 259 242 221 211 202 195 199 197 195 196 190 186 181 174 175 176 173 171 172 174 174 174 174 186 185 182 186 196 203 195 186 181 179 176 172 166 165 178 169 171
180 205 190 160 251 261 252 270 297 306 313 244 195 163 197 215 212 201 198 185 184 180 180 180 177 174 176 175 170 168 172 173 176 180 177 177 181 180 170 170 164 158 158 158 154 155 165 159 162
189 165 140 176 204 250 268 255 249 277 270 239 204 216 247 238 26 57 159 189 185 173 160 157 160 169 172 169 173 171 173 173 167 164 168 168 174 168 162 163 155 147 146 148 146 147 156 149 155
161 178 179 191 201 198 255 266 231 228 232 223 224 218 216 213 315 351 345 66 143 132 137 143 144 138 147 160 163 157 167 162 153 161 175 168 159 162 164 165 157 152 151 153 151 152 152 151 153
192 198 172 193 231 205 227 269 310 302 309 118 311 346 38 50 41 45 46 58 63 94 136 147 150 147 149 142 143 154 156 154 157 164 174 163 155 158 164 160 155 156 155 157 158 160 153 160 167